DAL1047 KJFK-KATL

Flight info

Callsign DAL1047
Flight time 1h 50m
Altitude 38000
Route RBV Q430 BYRDD J48 MOL FLASK OZZZI2
Aircraft B772/H-L/C

Departure

Time 2026-05-08 00:49
Airport John F. Kennedy International Airport (KJFK)

Arrival

Time 2026-05-08 02:39
Airport Hartsfield Jackson Atlanta International Airport (KATL)
Time Latitude Longitude Altitude Speed Heading
2026-05-08 00:13 40.65080 -73.79030 25 ft 0 kts 311°
2026-05-08 00:26 40.65070 -73.79015 25 ft 2 kts 311°
2026-05-08 00:26 40.65059 -73.78999 26 ft 2 kts 311°
2026-05-08 00:27 40.65049 -73.78983 25 ft 2 kts 311°
2026-05-08 00:27 40.65039 -73.78966 26 ft 2 kts 285°
2026-05-08 00:27 40.65036 -73.78945 27 ft 2 kts 264°
2026-05-08 00:27 40.65038 -73.78934 28 ft 0 kts 237°
2026-05-08 00:28 40.65040 -73.78930 29 ft 0 kts 237°
2026-05-08 00:28 40.65042 -73.78926 30 ft 0 kts 237°
2026-05-08 00:28 40.65044 -73.78922 30 ft 0 kts 237°
2026-05-08 00:28 40.65046 -73.78918 31 ft 0 kts 237°
2026-05-08 00:29 40.65048 -73.78914 30 ft 1 kts 237°
2026-05-08 00:29 40.65050 -73.78910 30 ft 0 kts 237°
2026-05-08 00:29 40.65051 -73.78907 29 ft 1 kts 237°
2026-05-08 00:29 40.65053 -73.78903 29 ft 1 kts 237°
2026-05-08 00:30 40.65055 -73.78899 29 ft 1 kts 237°
2026-05-08 00:30 40.65057 -73.78895 29 ft 1 kts 237°
2026-05-08 00:30 40.65059 -73.78891 29 ft 1 kts 237°
2026-05-08 00:30 40.65061 -73.78887 29 ft 0 kts 237°
2026-05-08 00:31 40.65063 -73.78883 29 ft 0 kts 237°
2026-05-08 00:31 40.65065 -73.78879 26 ft 1 kts 237°
2026-05-08 00:31 40.65067 -73.78875 26 ft 1 kts 237°
2026-05-08 00:31 40.65069 -73.78871 26 ft 1 kts 237°
2026-05-08 00:32 40.65071 -73.78867 26 ft 0 kts 237°
2026-05-08 00:32 40.65073 -73.78863 26 ft 1 kts 237°
2026-05-08 00:32 40.65075 -73.78859 26 ft 0 kts 237°
2026-05-08 00:32 40.65077 -73.78855 27 ft 0 kts 237°
2026-05-08 00:33 40.65079 -73.78850 27 ft 1 kts 237°
2026-05-08 00:33 40.65081 -73.78846 27 ft 1 kts 237°
2026-05-08 00:33 40.65083 -73.78842 27 ft 1 kts 237°
2026-05-08 00:33 40.65085 -73.78838 27 ft 0 kts 237°
2026-05-08 00:34 40.65087 -73.78834 27 ft 0 kts 237°
2026-05-08 00:34 40.65089 -73.78830 27 ft 0 kts 237°
2026-05-08 00:34 40.65091 -73.78826 27 ft 0 kts 237°
2026-05-08 00:34 40.65093 -73.78822 27 ft 0 kts 237°
2026-05-08 00:35 40.65095 -73.78818 27 ft 0 kts 237°
2026-05-08 00:35 40.65097 -73.78814 27 ft 0 kts 237°
2026-05-08 00:35 40.65098 -73.78811 27 ft 0 kts 237°
2026-05-08 00:35 40.65100 -73.78807 27 ft 0 kts 238°
2026-05-08 00:36 40.65102 -73.78803 27 ft 0 kts 238°
2026-05-08 00:36 40.65104 -73.78799 27 ft 0 kts 238°
2026-05-08 00:36 40.65106 -73.78795 27 ft 0 kts 238°
2026-05-08 00:36 40.65107 -73.78792 27 ft 0 kts 238°
2026-05-08 00:37 40.65109 -73.78789 27 ft 0 kts 238°
2026-05-08 00:37 40.65108 -73.78790 29 ft 0 kts 238°
2026-05-08 00:37 40.65107 -73.78808 26 ft 7 kts 270°
2026-05-08 00:38 40.65156 -73.78783 28 ft 3 kts 84°
2026-05-08 00:38 40.65157 -73.78769 26 ft 0 kts 84°
2026-05-08 00:38 40.65171 -73.78696 28 ft 11 kts 65°
2026-05-08 00:39 40.65208 -73.78603 29 ft 11 kts 61°
2026-05-08 00:39 40.65246 -73.78515 29 ft 11 kts 60°
2026-05-08 00:39 40.65253 -73.78498 29 ft 0 kts 61°
2026-05-08 00:40 40.65262 -73.78472 28 ft 11 kts 71°
2026-05-08 00:40 40.65260 -73.78370 30 ft 11 kts 110°
2026-05-08 00:40 40.65216 -73.78262 29 ft 16 kts 120°
2026-05-08 00:40 40.65160 -73.78140 29 ft 16 kts 120°
2026-05-08 00:41 40.65131 -73.78010 27 ft 16 kts 65°
2026-05-08 00:41 40.65216 -73.77925 30 ft 16 kts 30°
2026-05-08 00:41 40.65310 -73.77851 28 ft 16 kts 36°
2026-05-08 00:41 40.65315 -73.77722 30 ft 16 kts 116°
2026-05-08 00:42 40.65260 -73.77596 30 ft 16 kts 120°
2026-05-08 00:42 40.65204 -73.77472 28 ft 16 kts 121°
2026-05-08 00:42 40.65147 -73.77348 29 ft 16 kts 121°
2026-05-08 00:42 40.65090 -73.77224 30 ft 16 kts 121°
2026-05-08 00:43 40.65034 -73.77099 31 ft 16 kts 120°
2026-05-08 00:43 40.64978 -73.76974 30 ft 16 kts 121°
2026-05-08 00:43 40.64921 -73.76850 30 ft 16 kts 121°
2026-05-08 00:43 40.64886 -73.76721 29 ft 16 kts 70°
2026-05-08 00:44 40.64968 -73.76630 27 ft 16 kts 31°
2026-05-08 00:44 40.65061 -73.76557 31 ft 16 kts 31°
2026-05-08 00:44 40.65088 -73.76447 27 ft 12 kts 112°
2026-05-08 00:44 40.65038 -73.76361 27 ft 12 kts 164°
2026-05-08 00:45 40.65005 -73.76371 27 ft 0 kts 205°
2026-05-08 00:48 40.64946 -73.76412 26 ft 31 kts 210°
2026-05-08 00:48 40.64614 -73.76675 26 ft 85 kts 211°
2026-05-08 00:48 40.63887 -73.77248 28 ft 157 kts 211°
2026-05-08 00:49 40.62842 -73.78072 429 ft 193 kts 210°
2026-05-08 00:49 40.61599 -73.79029 1182 ft 217 kts 212°
2026-05-08 00:49 40.60309 -73.80164 2352 ft 229 kts 219°
2026-05-08 00:49 40.58978 -73.81409 3026 ft 240 kts 213°
2026-05-08 00:50 40.57541 -73.82576 3771 ft 245 kts 213°
2026-05-08 00:50 40.56079 -73.83738 4613 ft 245 kts 212°
2026-05-08 00:50 40.54616 -73.84890 5469 ft 245 kts 212°
2026-05-08 00:50 40.53126 -73.86056 6159 ft 256 kts 212°
2026-05-08 00:51 40.51564 -73.87266 6859 ft 264 kts 213°
2026-05-08 00:51 40.49950 -73.88486 7690 ft 270 kts 213°
2026-05-08 00:51 40.48305 -73.89687 8599 ft 272 kts 213°
2026-05-08 00:51 40.46627 -73.90868 9540 ft 275 kts 213°
2026-05-08 00:52 40.44937 -73.92051 10351 ft 273 kts 218°
2026-05-08 00:52 40.43610 -73.93829 10619 ft 281 kts 242°
2026-05-08 00:52 40.42660 -73.96203 10832 ft 307 kts 247°
2026-05-08 00:52 40.41716 -73.98852 11201 ft 330 kts 246°
2026-05-08 00:53 40.40707 -74.01587 12163 ft 335 kts 245°
2026-05-08 00:53 40.39648 -74.04310 13433 ft 334 kts 243°
2026-05-08 00:53 40.38579 -74.06952 14655 ft 333 kts 243°
2026-05-08 00:53 40.37461 -74.09640 15585 ft 339 kts 242°
2026-05-08 00:54 40.36306 -74.12368 16490 ft 345 kts 242°
2026-05-08 00:54 40.35125 -74.15128 17491 ft 349 kts 242°
2026-05-08 00:54 40.33904 -74.17961 18454 ft 354 kts 242°
2026-05-08 00:54 40.32686 -74.20779 19327 ft 358 kts 242°
2026-05-08 00:55 40.31450 -74.23635 20214 ft 362 kts 242°
2026-05-08 00:55 40.30214 -74.26485 21089 ft 365 kts 242°
2026-05-08 00:55 40.29030 -74.29215 21921 ft 369 kts 242°
2026-05-08 00:55 40.27757 -74.32147 22719 ft 373 kts 242°
2026-05-08 00:56 40.26467 -74.35116 23423 ft 378 kts 242°
2026-05-08 00:56 40.25162 -74.38119 24110 ft 380 kts 243°
2026-05-08 00:56 40.23851 -74.41128 24842 ft 380 kts 243°
2026-05-08 00:56 40.22548 -74.44136 25522 ft 381 kts 244°
2026-05-08 00:57 40.21466 -74.47299 26072 ft 382 kts 251°
2026-05-08 00:57 40.20641 -74.50618 26640 ft 384 kts 254°
2026-05-08 00:57 40.19951 -74.54002 27216 ft 386 kts 257°
2026-05-08 00:57 40.19518 -74.57472 27770 ft 388 kts 263°
2026-05-08 00:58 40.19255 -74.60990 28291 ft 389 kts 263°
2026-05-08 00:58 40.18996 -74.64533 28763 ft 391 kts 263°
2026-05-08 00:58 40.18733 -74.68085 29200 ft 393 kts 263°
2026-05-08 00:58 40.18463 -74.71657 29602 ft 395 kts 263°
2026-05-08 00:59 40.18188 -74.75236 29968 ft 397 kts 263°
2026-05-08 00:59 40.17907 -74.78825 30254 ft 398 kts 263°
2026-05-08 00:59 40.17625 -74.82396 30524 ft 399 kts 263°
2026-05-08 00:59 40.17341 -74.85968 30868 ft 399 kts 263°
2026-05-08 01:00 40.17054 -74.89571 31261 ft 397 kts 263°
2026-05-08 01:00 40.16767 -74.93148 31647 ft 395 kts 263°
2026-05-08 01:00 40.16481 -74.96695 32014 ft 394 kts 263°
2026-05-08 01:00 40.16192 -75.00263 32396 ft 394 kts 263°
2026-05-08 01:01 40.15903 -75.03818 32759 ft 393 kts 263°
2026-05-08 01:01 40.15615 -75.07364 33156 ft 391 kts 263°
2026-05-08 01:01 40.15328 -75.10876 33674 ft 387 kts 263°
2026-05-08 01:01 40.15041 -75.14373 34006 ft 387 kts 263°
2026-05-08 01:02 40.14752 -75.17882 34230 ft 389 kts 263°
2026-05-08 01:02 40.14459 -75.21422 34443 ft 390 kts 263°
2026-05-08 01:02 40.14168 -75.24923 34699 ft 390 kts 263°
2026-05-08 01:02 40.13875 -75.28454 34978 ft 391 kts 263°
2026-05-08 01:03 40.13579 -75.31991 35241 ft 391 kts 263°
2026-05-08 01:03 40.13283 -75.35526 35501 ft 392 kts 263°
2026-05-08 01:03 40.12987 -75.39031 35748 ft 392 kts 263°
2026-05-08 01:03 40.12679 -75.42596 36020 ft 393 kts 263°
2026-05-08 01:04 40.12370 -75.46137 36383 ft 391 kts 263°
2026-05-08 01:04 40.12060 -75.49670 36658 ft 391 kts 263°
2026-05-08 01:04 40.11750 -75.53209 36875 ft 392 kts 263°
2026-05-08 01:04 40.11442 -75.56711 37099 ft 393 kts 263°
2026-05-08 01:05 40.11130 -75.60255 37341 ft 393 kts 263°
2026-05-08 01:05 40.10816 -75.63805 37574 ft 394 kts 263°
2026-05-08 01:05 40.10501 -75.67363 37785 ft 395 kts 263°
2026-05-08 01:06 40.09860 -75.74509 37888 ft 397 kts 262°
2026-05-08 01:06 40.08394 -75.81390 37897 ft 392 kts 251°
2026-05-08 01:07 40.06202 -75.87981 37889 ft 401 kts 245°
2026-05-08 01:07 40.03145 -75.94194 37828 ft 410 kts 241°
2026-05-08 01:08 39.99940 -76.00388 37872 ft 414 kts 241°
2026-05-08 01:08 39.96715 -76.06658 37868 ft 418 kts 241°
2026-05-08 01:09 39.93475 -76.12986 37867 ft 420 kts 241°
2026-05-08 01:09 39.90224 -76.19341 37881 ft 422 kts 241°
2026-05-08 01:10 39.86968 -76.25692 37869 ft 422 kts 241°
2026-05-08 01:10 39.83711 -76.32034 37874 ft 421 kts 241°
2026-05-08 01:11 39.80461 -76.38350 37876 ft 419 kts 241°
2026-05-08 01:11 39.77214 -76.44643 37857 ft 418 kts 241°
2026-05-08 01:12 39.74000 -76.50867 37889 ft 417 kts 241°
2026-05-08 01:12 39.70761 -76.57125 37871 ft 418 kts 241°
2026-05-08 01:13 39.67515 -76.63380 37867 ft 417 kts 241°
2026-05-08 01:13 39.64794 -76.68619 37867 ft 417 kts 241°
2026-05-08 01:14 39.61549 -76.74853 37869 ft 417 kts 241°
2026-05-08 01:14 39.58294 -76.81096 37881 ft 418 kts 241°
2026-05-08 01:15 39.55057 -76.87294 37918 ft 418 kts 241°
2026-05-08 01:15 39.51764 -76.93527 37904 ft 421 kts 238°
2026-05-08 01:16 39.47861 -76.99268 37899 ft 427 kts 232°
2026-05-08 01:16 39.43387 -77.04422 37902 ft 434 kts 227°
2026-05-08 01:17 39.38678 -77.09333 37917 ft 435 kts 227°
2026-05-08 01:17 39.33965 -77.14241 37930 ft 435 kts 227°
2026-05-08 01:18 39.29262 -77.19158 37930 ft 435 kts 227°
2026-05-08 01:18 39.24561 -77.24077 37958 ft 435 kts 227°
2026-05-08 01:19 39.19852 -77.28998 37940 ft 436 kts 227°
2026-05-08 01:19 39.15136 -77.33918 37929 ft 436 kts 227°
2026-05-08 01:20 39.10422 -77.38825 37883 ft 435 kts 227°
2026-05-08 01:20 39.05730 -77.43709 37924 ft 433 kts 228°
2026-05-08 01:21 39.01532 -77.49129 37922 ft 422 kts 237°
2026-05-08 01:21 38.97712 -77.54876 37922 ft 423 kts 236°
2026-05-08 01:22 38.93843 -77.60573 37951 ft 423 kts 236°
2026-05-08 01:22 38.89964 -77.66267 37909 ft 422 kts 236°
2026-05-08 01:23 38.86129 -77.71892 37930 ft 422 kts 236°
2026-05-08 01:23 38.82244 -77.77588 37944 ft 421 kts 236°
2026-05-08 01:24 38.78416 -77.83193 37911 ft 420 kts 236°
2026-05-08 01:24 38.74562 -77.88826 37917 ft 420 kts 236°
2026-05-08 01:25 38.70710 -77.94444 37914 ft 419 kts 236°
2026-05-08 01:25 38.66861 -78.00047 37948 ft 418 kts 236°
2026-05-08 01:26 38.63020 -78.05632 37944 ft 418 kts 236°
2026-05-08 01:26 38.59176 -78.11212 37946 ft 418 kts 236°
2026-05-08 01:27 38.55322 -78.16796 37945 ft 419 kts 236°
2026-05-08 01:27 38.51463 -78.22375 37890 ft 419 kts 236°
2026-05-08 01:28 38.47613 -78.27932 37929 ft 418 kts 236°
2026-05-08 01:28 38.43762 -78.33478 37925 ft 417 kts 236°
2026-05-08 01:29 38.39908 -78.39019 37947 ft 417 kts 236°
2026-05-08 01:29 38.36049 -78.44560 37933 ft 418 kts 236°
2026-05-08 01:30 38.32197 -78.50084 37870 ft 416 kts 237°
2026-05-08 01:30 38.28368 -78.55560 37942 ft 412 kts 237°
2026-05-08 01:31 38.24597 -78.60942 37948 ft 409 kts 237°
2026-05-08 01:31 38.20813 -78.66341 37927 ft 408 kts 237°
2026-05-08 01:32 38.17028 -78.71732 37934 ft 408 kts 237°
2026-05-08 01:32 38.13239 -78.77121 37938 ft 409 kts 237°
2026-05-08 01:33 38.09451 -78.82493 37964 ft 407 kts 237°
2026-05-08 01:33 38.05666 -78.87852 37953 ft 407 kts 237°
2026-05-08 01:34 38.01892 -78.93187 37953 ft 406 kts 237°
2026-05-08 01:34 37.98123 -78.98514 37946 ft 406 kts 237°
2026-05-08 01:35 37.94350 -79.03834 37934 ft 405 kts 237°
2026-05-08 01:35 37.90589 -79.09125 37949 ft 405 kts 237°
2026-05-08 01:36 37.86824 -79.14408 37979 ft 404 kts 238°
2026-05-08 01:36 37.83080 -79.19660 38021 ft 403 kts 237°
2026-05-08 01:37 37.79320 -79.24927 38027 ft 403 kts 237°
2026-05-08 01:37 37.75567 -79.30169 38057 ft 402 kts 237°
2026-05-08 01:38 37.71822 -79.35399 38057 ft 402 kts 237°
2026-05-08 01:38 37.68069 -79.40627 38027 ft 400 kts 238°
2026-05-08 01:39 37.64331 -79.45822 38021 ft 399 kts 238°
2026-05-08 01:39 37.60613 -79.50990 37997 ft 397 kts 238°
2026-05-08 01:40 37.56933 -79.56090 37989 ft 396 kts 238°
2026-05-08 01:40 37.53224 -79.61227 37960 ft 396 kts 238°
2026-05-08 01:41 37.49554 -79.66303 37894 ft 395 kts 238°
2026-05-08 01:41 37.45864 -79.71384 37967 ft 394 kts 238°
2026-05-08 01:42 37.42158 -79.76501 37965 ft 395 kts 238°
2026-05-08 01:42 37.38448 -79.81605 37975 ft 395 kts 238°
2026-05-08 01:43 37.34746 -79.86687 37967 ft 394 kts 238°
2026-05-08 01:43 37.31046 -79.91759 37968 ft 393 kts 238°
2026-05-08 01:44 37.27364 -79.96796 37909 ft 392 kts 238°
2026-05-08 01:44 37.23688 -80.01820 37955 ft 392 kts 238°
2026-05-08 01:45 37.20002 -80.06854 37979 ft 392 kts 238°
2026-05-08 01:45 37.16306 -80.11891 37991 ft 392 kts 238°
2026-05-08 01:46 37.12605 -80.16933 38002 ft 393 kts 238°
2026-05-08 01:46 37.08896 -80.21974 37985 ft 393 kts 238°
2026-05-08 01:47 37.05196 -80.26994 37987 ft 390 kts 238°
2026-05-08 01:47 37.01506 -80.31991 37986 ft 392 kts 238°
2026-05-08 01:48 36.95777 -80.39359 37979 ft 394 kts 237°
2026-05-08 01:48 36.91925 -80.44255 37969 ft 395 kts 237°
2026-05-08 01:49 36.88107 -80.49122 37965 ft 395 kts 237°
2026-05-08 01:49 36.84275 -80.54006 37965 ft 395 kts 237°
2026-05-08 01:50 36.80435 -80.58894 37965 ft 394 kts 237°
2026-05-08 01:50 36.76599 -80.63771 37984 ft 393 kts 237°
2026-05-08 01:51 36.72791 -80.68604 37999 ft 392 kts 237°
2026-05-08 01:51 36.68973 -80.73447 37979 ft 391 kts 237°
2026-05-08 01:52 36.65157 -80.78280 37997 ft 391 kts 237°
2026-05-08 01:52 36.63246 -80.80698 37870 ft 391 kts 237°
2026-05-08 01:52 36.61311 -80.83143 37924 ft 391 kts 237°
2026-05-08 01:53 36.57489 -80.87966 37985 ft 392 kts 237°
2026-05-08 01:53 36.53649 -80.92805 37981 ft 393 kts 237°
2026-05-08 01:54 36.49852 -80.97581 37973 ft 394 kts 237°
2026-05-08 01:54 36.46662 -81.01596 37986 ft 394 kts 237°
2026-05-08 01:55 36.42849 -81.06380 38008 ft 393 kts 237°
2026-05-08 01:55 36.39003 -81.11201 38012 ft 393 kts 237°
2026-05-08 01:56 36.35143 -81.16032 38014 ft 394 kts 237°
2026-05-08 01:56 36.31285 -81.20853 38031 ft 395 kts 237°
2026-05-08 01:57 36.27407 -81.25697 38048 ft 397 kts 237°
2026-05-08 01:57 36.23507 -81.30563 38022 ft 397 kts 237°
2026-05-08 01:58 36.19632 -81.35388 37996 ft 397 kts 237°
2026-05-08 01:58 36.15751 -81.40216 37960 ft 395 kts 237°
2026-05-08 01:59 36.11874 -81.45030 37970 ft 395 kts 237°
2026-05-08 01:59 36.07994 -81.49845 37938 ft 395 kts 236°
2026-05-08 02:00 36.04119 -81.54654 37938 ft 395 kts 237°
2026-05-08 02:00 36.00227 -81.59465 37968 ft 397 kts 237°
2026-05-08 02:01 35.96317 -81.64294 37944 ft 398 kts 237°
2026-05-08 02:01 35.92397 -81.69125 37942 ft 397 kts 236°
2026-05-08 02:02 35.88489 -81.73938 37939 ft 397 kts 236°
2026-05-08 02:02 35.84577 -81.78752 38006 ft 397 kts 236°
2026-05-08 02:03 35.80687 -81.83530 38000 ft 397 kts 236°
2026-05-08 02:03 35.76776 -81.88285 37985 ft 398 kts 236°
2026-05-08 02:04 35.72824 -81.93005 37972 ft 398 kts 236°
2026-05-08 02:04 35.68877 -81.97714 38000 ft 398 kts 236°
2026-05-08 02:05 35.64904 -82.02457 37998 ft 398 kts 236°
2026-05-08 02:05 35.60932 -82.07194 38000 ft 397 kts 236°
2026-05-08 02:06 35.56974 -82.11910 37978 ft 398 kts 236°
2026-05-08 02:06 35.53011 -82.16625 37999 ft 398 kts 236°
2026-05-08 02:07 35.49050 -82.21331 37930 ft 396 kts 235°
2026-05-08 02:07 35.45090 -82.26006 38019 ft 391 kts 236°
2026-05-08 02:08 35.41236 -82.30631 37974 ft 395 kts 236°
2026-05-08 02:08 35.37374 -82.35454 37975 ft 400 kts 237°
2026-05-08 02:09 35.33457 -82.40343 37965 ft 403 kts 236°
2026-05-08 02:09 35.29513 -82.45235 37970 ft 404 kts 236°
2026-05-08 02:10 35.25560 -82.50128 37977 ft 404 kts 236°
2026-05-08 02:10 35.21606 -82.55016 37992 ft 404 kts 236°
2026-05-08 02:11 35.17650 -82.59903 37990 ft 405 kts 236°
2026-05-08 02:11 35.13647 -82.64777 37977 ft 407 kts 235°
2026-05-08 02:12 35.09579 -82.69585 37967 ft 407 kts 235°
2026-05-08 02:12 35.05520 -82.74380 37969 ft 406 kts 235°
2026-05-08 02:13 35.01487 -82.79158 37944 ft 403 kts 235°
2026-05-08 02:13 34.99498 -82.81510 37835 ft 393 kts 235°
2026-05-08 02:13 34.97555 -82.83802 37431 ft 385 kts 235°
2026-05-08 02:14 34.95630 -82.86078 36644 ft 386 kts 235°
2026-05-08 02:14 34.93721 -82.88348 35745 ft 390 kts 234°
2026-05-08 02:14 34.91732 -82.90681 34971 ft 393 kts 233°
2026-05-08 02:14 34.89777 -82.92943 34258 ft 393 kts 233°
2026-05-08 02:15 34.87767 -82.95259 33396 ft 393 kts 233°
2026-05-08 02:15 34.85775 -82.97557 32380 ft 397 kts 233°
2026-05-08 02:15 34.83785 -82.99858 31304 ft 402 kts 234°
2026-05-08 02:15 34.81751 -83.02210 30446 ft 403 kts 234°
2026-05-08 02:16 34.79734 -83.04534 29838 ft 397 kts 234°
2026-05-08 02:16 34.77745 -83.06829 29114 ft 391 kts 234°
2026-05-08 02:16 34.75776 -83.09099 28403 ft 389 kts 233°
2026-05-08 02:16 34.73818 -83.11355 27683 ft 386 kts 233°
2026-05-08 02:17 34.71873 -83.13594 27018 ft 384 kts 233°
2026-05-08 02:17 34.69940 -83.15819 26358 ft 381 kts 233°
2026-05-08 02:17 34.68020 -83.18029 25684 ft 380 kts 232°
2026-05-08 02:17 34.66103 -83.20232 25037 ft 378 kts 232°
2026-05-08 02:18 34.64200 -83.22420 24425 ft 376 kts 232°
2026-05-08 02:18 34.62305 -83.24597 23833 ft 374 kts 231°
2026-05-08 02:18 34.60419 -83.26763 23167 ft 372 kts 231°
2026-05-08 02:18 34.58544 -83.28915 22459 ft 371 kts 231°
2026-05-08 02:19 34.56673 -83.31059 21768 ft 370 kts 231°
2026-05-08 02:19 34.54809 -83.33194 21362 ft 362 kts 232°
2026-05-08 02:19 34.53015 -83.35243 21283 ft 346 kts 232°
2026-05-08 02:19 34.51302 -83.37202 21120 ft 333 kts 232°
2026-05-08 02:20 34.49639 -83.39111 20828 ft 325 kts 232°
2026-05-08 02:20 34.48021 -83.40973 20550 ft 317 kts 233°
2026-05-08 02:20 34.46433 -83.42801 20174 ft 314 kts 232°
2026-05-08 02:20 34.44852 -83.44622 19740 ft 312 kts 232°
2026-05-08 02:21 34.43285 -83.46427 19368 ft 309 kts 232°
2026-05-08 02:21 34.41730 -83.48214 18997 ft 307 kts 232°
2026-05-08 02:21 34.40183 -83.49988 18648 ft 305 kts 232°
2026-05-08 02:21 34.38646 -83.51751 18281 ft 303 kts 232°
2026-05-08 02:22 34.37116 -83.53503 17853 ft 302 kts 232°
2026-05-08 02:22 34.35603 -83.55235 17458 ft 301 kts 232°
2026-05-08 02:22 34.34084 -83.56974 17052 ft 299 kts 232°
2026-05-08 02:22 34.32597 -83.58676 16661 ft 298 kts 231°
2026-05-08 02:23 34.31101 -83.60385 16262 ft 297 kts 231°
2026-05-08 02:23 34.29612 -83.62081 15851 ft 295 kts 232°
2026-05-08 02:23 34.28118 -83.63758 15475 ft 294 kts 231°
2026-05-08 02:23 34.26584 -83.65400 15094 ft 293 kts 230°
2026-05-08 02:24 34.25052 -83.67018 14708 ft 292 kts 230°
2026-05-08 02:24 34.23533 -83.68623 14338 ft 291 kts 230°
2026-05-08 02:24 34.22013 -83.70231 13972 ft 289 kts 230°
2026-05-08 02:24 34.20505 -83.71830 13562 ft 288 kts 230°
2026-05-08 02:25 34.19000 -83.73428 13165 ft 287 kts 229°
2026-05-08 02:25 34.17505 -83.75014 12749 ft 285 kts 230°
2026-05-08 02:25 34.16022 -83.76589 12352 ft 283 kts 229°
2026-05-08 02:25 34.14547 -83.78156 12038 ft 279 kts 229°
2026-05-08 02:26 34.13119 -83.79669 12001 ft 269 kts 229°
2026-05-08 02:26 34.11723 -83.81149 12007 ft 266 kts 230°
2026-05-08 02:26 34.10336 -83.82621 11996 ft 266 kts 230°
2026-05-08 02:26 34.08945 -83.84103 11885 ft 269 kts 230°
2026-05-08 02:27 34.07544 -83.85608 11649 ft 270 kts 230°
2026-05-08 02:27 34.06150 -83.87106 11391 ft 267 kts 230°
2026-05-08 02:27 34.04775 -83.88582 11147 ft 261 kts 229°
2026-05-08 02:27 34.03445 -83.90011 10896 ft 258 kts 229°
2026-05-08 02:28 34.02107 -83.91447 10666 ft 258 kts 229°
2026-05-08 02:28 34.00762 -83.92876 10428 ft 257 kts 227°
2026-05-08 02:28 33.99281 -83.94108 10195 ft 258 kts 220°
2026-05-08 02:28 33.97772 -83.95204 9955 ft 255 kts 219°
2026-05-08 02:29 33.96254 -83.96290 9690 ft 252 kts 219°
2026-05-08 02:29 33.94754 -83.97360 9428 ft 250 kts 219°
2026-05-08 02:29 33.93275 -83.98420 9177 ft 250 kts 219°
2026-05-08 02:29 33.91792 -83.99490 9082 ft 247 kts 219°
2026-05-08 02:30 33.90333 -84.00543 8820 ft 243 kts 219°
2026-05-08 02:30 33.89031 -84.01479 8609 ft 237 kts 219°
2026-05-08 02:30 33.87625 -84.02490 8299 ft 234 kts 219°
2026-05-08 02:30 33.86237 -84.03494 7971 ft 232 kts 219°
2026-05-08 02:31 33.84861 -84.04496 7640 ft 230 kts 219°
2026-05-08 02:31 33.83507 -84.05493 7327 ft 228 kts 219°
2026-05-08 02:31 33.82167 -84.06495 7015 ft 226 kts 219°
2026-05-08 02:31 33.80842 -84.07501 6686 ft 225 kts 219°
2026-05-08 02:32 33.79526 -84.08508 6359 ft 224 kts 219°
2026-05-08 02:32 33.78219 -84.09509 6044 ft 223 kts 219°
2026-05-08 02:32 33.76911 -84.10518 5714 ft 225 kts 219°
2026-05-08 02:32 33.75583 -84.11562 5396 ft 230 kts 219°
2026-05-08 02:33 33.74244 -84.12636 5078 ft 232 kts 219°
2026-05-08 02:33 33.72908 -84.13718 4775 ft 231 kts 219°
2026-05-08 02:33 33.71596 -84.14791 4440 ft 231 kts 219°
2026-05-08 02:33 33.70272 -84.15885 4102 ft 231 kts 219°
2026-05-08 02:34 33.68936 -84.16994 3781 ft 230 kts 219°
2026-05-08 02:34 33.67707 -84.18016 3651 ft 220 kts 219°
2026-05-08 02:34 33.66576 -84.18954 3570 ft 207 kts 220°
2026-05-08 02:34 33.65617 -84.20091 3589 ft 189 kts 243°
2026-05-08 02:35 33.65292 -84.21552 3606 ft 179 kts 267°
2026-05-08 02:35 33.65164 -84.23036 3594 ft 178 kts 266°
2026-05-08 02:35 33.65023 -84.24505 3592 ft 175 kts 268°
2026-05-08 02:35 33.64964 -84.25969 3438 ft 180 kts 271°
2026-05-08 02:36 33.64953 -84.27447 3228 ft 173 kts 272°
2026-05-08 02:36 33.64952 -84.28853 3000 ft 162 kts 274°
2026-05-08 02:36 33.64954 -84.30222 2770 ft 167 kts 274°
2026-05-08 02:36 33.64954 -84.31136 2628 ft 163 kts 274°
2026-05-08 02:37 33.64953 -84.32486 2400 ft 160 kts 274°
2026-05-08 02:37 33.64953 -84.33800 2173 ft 154 kts 274°
2026-05-08 02:37 33.64924 -84.35044 2017 ft 142 kts 271°
2026-05-08 02:37 33.64902 -84.36191 1869 ft 135 kts 276°
2026-05-08 02:38 33.64936 -84.37324 1699 ft 136 kts 275°
2026-05-08 02:38 33.64941 -84.38462 1536 ft 136 kts 272°
2026-05-08 02:38 33.64933 -84.39603 1370 ft 135 kts 271°
2026-05-08 02:38 33.64946 -84.40701 1208 ft 127 kts 270°
2026-05-08 02:39 33.64947 -84.41716 1041 ft 114 kts 270°
2026-05-08 02:39 33.64954 -84.42518 1040 ft 74 kts 269°
2026-05-08 02:39 33.64951 -84.42985 1039 ft 41 kts 269°
2026-05-08 02:39 33.64900 -84.43248 1040 ft 30 kts 248°
2026-05-08 02:40 33.64842 -84.43481 1040 ft 25 kts 253°
2026-05-08 02:40 33.64785 -84.43555 1040 ft 0 kts 212°
2026-05-08 02:42 33.64721 -84.43602 1040 ft 14 kts 210°
2026-05-08 02:42 33.64637 -84.43658 1040 ft 14 kts 209°
2026-05-08 02:42 33.64556 -84.43722 1040 ft 14 kts 227°
2026-05-08 02:42 33.64524 -84.43830 1039 ft 14 kts 259°
2026-05-08 02:43 33.64510 -84.43945 1040 ft 14 kts 262°
2026-05-08 02:43 33.64467 -84.44039 1040 ft 14 kts 201°
2026-05-08 02:43 33.64371 -84.44051 1040 ft 14 kts 181°
2026-05-08 02:43 33.64274 -84.44051 1040 ft 14 kts 180°
2026-05-08 02:44 33.64178 -84.44051 1040 ft 14 kts 180°
2026-05-08 02:44 33.64081 -84.44052 1040 ft 14 kts 180°
2026-05-08 02:44 33.63984 -84.44051 1040 ft 14 kts 180°
2026-05-08 02:44 33.63908 -84.44029 1040 ft 10 kts 126°
2026-05-08 02:45 33.63900 -84.43994 1040 ft 7 kts 95°
2026-05-08 02:45 33.63899 -84.43982 1040 ft 0 kts 94°